Regional Weather Roundup
Issued by NWS

Home | Current Version | Previous Version | Graphics & Text | Print | Product List | Glossary Off
Versions: 1 2 3 4 5 6 7 8 9 10 11 12 13 14 15 16 17 18 19 20 21 22 23 24 25 26 27

000
ASUS45 KBOU 210507
RWRCO

WEATHER ROUNDUP FOR COLORADO
NATIONAL WEATHER SERVICE DENVER/BOULDER CO
1100 PM MDT FRI OCT 20 2017

NOTE: "FAIR" INDICATES FEW OR NO CLOUDS BELOW 12000 FEET WITH NO
SIGNIFICANT WEATHER AND/OR OBSTRUCTIONS TO VISIBILITY.

COZ001>005-013-030-031-210600-
...NORTHWEST COLORADO...

CITY           SKY/WX    TMP DP  RH WIND       PRES   REMARKS
CRAIG          LGT SNOW  33  32  96 S7        29.93R FOG     WCI  27
HAYDEN         NOT AVBL
MEEKER         LGT SNOW  34  33  96 CALM      29.92R FOG
RABBIT EARS PA HVY SNOW  23  23 100 MISG      29.86R VSB 1/4
STEAMBOAT SPGS CLOUDY    32  31  96 W9G21     29.88R VSB 1/2 WCI  24
WALDEN         NOT AVBL
$$

COZ006>008-011-210600-
...WEST CENTRAL VALLEYS...

CITY           SKY/WX    TMP DP  RH WIND       PRES   REMARKS
GRAND JUNCTION FAIR      53  37  54 W18G26    29.77R
MONTROSE       LGT RAIN  52  38  58 W15G35    29.82R
EAGLE          CLOUDY    48  39  71 NW5       29.78R
RIFLE          LGT RAIN  43  38  82 W10G26    29.85R
DELTA          CLOUDY    57  39  50 W6        29.77R
NUCLA          CLOUDY    54  32  43 NW8       29.86R
$$

COZ017>023-064>068-210600-
...SOUTHWEST COLORADO...

CITY           SKY/WX    TMP DP  RH WIND       PRES   REMARKS
DURANGO        MOCLDY    60  27  28 SW22G36   29.80R
CORTEZ         LGT RAIN  59  30  33 W17G25    29.80R
PAGOSA SPRINGS CLOUDY    58  23  26 SW16G30   29.84S
TELLURIDE      LGT RAIN  37  36  96 W12       29.96R
WOLF CREEK PAS CLOUDY    34  27  75 SW30G46   30.01S WCI  20
$$

COZ009-010-012-014-032>034-037-058>063-210600-
...CENTRAL COLORADO...

CITY           SKY/WX    TMP DP  RH WIND       PRES   REMARKS
ASPEN          LGT RAIN  43  40  89 W6        29.79R
BUENA VISTA    FAIR      51  28  41 W22G31    29.76R
COPPER MTN     LGT SNOW  34  30  86 MISG      29.92S
BERTHOUD PASS  FLURRIES  25  16  68 NW16      29.92R WCI  12
COTTONWOOD PAS CLOUDY    45  34  65 NW14G26   29.84S
GUNNISON       MOCLDY    48  35  60 S13       29.77R
KREMMLING      LGT RAIN  43  36  75 NW15G26   29.83R
LEADVILLE      LGT SNOW  33  31  92 SE5       29.84R FOG     WCI  29
MONARCH PASS   CLOUDY    34  23  64 SW35G45   30.02F WCI  19
SALIDA         FAIR      57  24  27 S10G17    29.80S
SUNLIGHT       SNOW      28  28 100 W14G31    29.92R VSB 1/4 WCI  17
WILKERSON PASS FAIR      36  19  51 S10G23    29.90F
$$

COZ069>075-210600-
...SAN LUIS VALLEY/SANGRE DE CRISTO MOUNTAINS...

CITY           SKY/WX    TMP DP  RH WIND       PRES   REMARKS
ALAMOSA        FAIR      52  29  41 SW16      29.79F
DEL NORTE      CLOUDY    49  32  50 W15G26    29.82F
LA VETA PASS   FAIR      45  27  49 S22G47    30.00R
SAGUACHE       FAIR      50  32  50 W8        29.81S
$$

COZ035-036-038>040-210600-
...NORTHERN COLORADO FRONT RANGE...

CITY           SKY/WX    TMP DP  RH WIND       PRES   REMARKS
DENVER INTL AP FAIR      61  25  25 SW16      29.54S
DMNS CITY PARK   N/A     59  24  26 SW5G10    29.53F
AURORA         PTCLDY    61  26  27 S12       29.56F
FRONT RANGE AP FAIR      59  28  31 S6        29.56S
ERIE MUNI ARPT FAIR      52  27  38 S6        29.58R
BOULDER MUN AP FAIR      59  23  25 SW10      29.55R
CENTENNIAL     FAIR      57  25  29 S13       29.58F
BROOMFIELD     FAIR      63  23  22 W13       29.56S
FORT COLLINS   FAIR      54  37  52 NE17      29.53R
LONGMONT       FAIR      53  31  44 NW3       29.53S
$$

COZ041-046-047-076>085-087-088-210600-
...PIKES PEAK/PALMER DIVIDE AND SOUTHERN FOOTHILLS...

CITY           SKY/WX    TMP DP  RH WIND       PRES   REMARKS
COLO. SPRINGS  MOCLDY    62  24  23 SW14      29.64R
A. F. ACADEMY  FAIR      59  21  23 SW8       29.63F
SCHRIEVER AFB  FAIR      61  21  21 W16G26    29.65S
CHEYENNE MTN   MOCLDY    58  21  24 NW6       29.60F
ELLICOTT         N/A    N/A N/A N/A SW9       29.63S
FALCON         FAIR      56  21  26 SW14      29.68S
FORT CARSON    FAIR      57  25  28 S7        29.62S
LIMON          FAIR      61  25  25 SW8       29.57S
MONUMENT HILL  FAIR      52  25  35 S5        29.69S
CANON CITY     FAIR      57  28  33 W6        29.62S
WALSENBURG     FAIR      64  28  25 SW20G25   29.69R
TRINIDAD       FAIR      58  29  33 S9        29.69F
$$

COZ042>045-048>051-090-091-210600-
...NORTHEAST COLORADO...

CITY           SKY/WX    TMP DP  RH WIND       PRES   REMARKS
GREELEY ARPT   FAIR      53  36  52 N16       29.53R
AKRON          FAIR      64  28  25 SW20      29.48F
BURLINGTON     FAIR      57  35  43 S15       29.53R
WRAY           NOT AVBL
YUMA           FAIR      48  28  46 S6        29.46F
STERLING       FAIR      50  37  62 CALM      29.44S
HOLYOKE        FAIR      52  41  66 S8        29.46F
FORT MORGAN    FAIR      51  31  46 W8        29.48S
$$

COZ086-089-092>099-210600-
...SOUTHEAST COLORADO...

CITY           SKY/WX    TMP DP  RH WIND       PRES   REMARKS
PUEBLO         FAIR      67  25  20 W6        29.57S
LA JUNTA       FAIR      63  29  27 SW13      29.57F
LAMAR          FAIR      64  35  34 SW17      29.53S
SPRINGFIELD      N/A     54  39  57 S10       29.66R
$$




USA.gov is the U.S. government's official web portal to all federal, state and local government web resources and services.